PUEBLO AVIATION WEATHER

 


 

 

Check out the latest edition of "The Front" - A Regional Newsletter dedicated to Aviation Weather

Aviation Weather Center Standard Briefing 

 


 

 

Colorado Springs Airport(KCOS) Aviation Decision Support Information Page  

 

 

  Terminal Aerodrome Forecasts

Interactive TAF Java Tool

Plotted TAFs and/or Text TAFs

Text TAFs

Pueblo KPUB

000
FTUS45 KPUB 271135
TAFPUB
TAF
KPUB 271135Z 2712/2812 26006KT P6SM SCT250
     FM271800 28009KT P6SM FEW150 BKN250
     FM280600 31010KT P6SM SCT250=
Colorado Springs KCOS
000
FTUS45 KPUB 271135
TAFCOS
TAF
KCOS 271135Z 2712/2812 36008KT P6SM SCT250
     FM271500 VRB05KT P6SM BKN250
     FM271800 17008KT P6SM FEW150 BKN250
     FM280300 36007KT P6SM SCT150 BKN250
     FM280600 35010KT P6SM SCT250=
Alamosa KALS

000
FTUS45 KPUB 271135
TAFALS
TAF
KALS 271135Z 2712/2812 VRB03KT P6SM BKN250
     FM272000 VRB05KT P6SM FEW150 BKN250
     FM280600 VRB03KT P6SM SCT250=
Denver KDEN

000
FTUS45 KBOU 271502 AAA
TAFDEN
TAF AMD
KDEN 271502Z 2715/2818 21016KT P6SM FEW250
     FM271700 25010KT P6SM SCT220
     FM272000 30009KT P6SM FEW140 SCT220
     FM272300 02007KT P6SM SCT140 BKN200
     FM280100 14008KT P6SM SCT120 BKN200
     FM280300 20012KT P6SM FEW140 BKN200=
  

 

Pilot Reports (PIREPs)

Aircraft Icing U.S. NESE
NCSC
NWSW
Sky Conditions U.S. NESE
NCSC
NWSW
Turbulence U.S. NESE
NCSC
NWSW

 

SOARING FORECAST

Experimental product for soaring guidance, Southern Front Range

 

 

 

METARS:

Pueblo


Colorado Springs


Denver

Alamosa


 

 


 

 

 

 

RADAR AND SATELLITE

radar
pueblo radar
 

 

Latest Radar from Pueblo
Click Image to Enlarge

 

IR Satellite
Colorado Infrared Satellite - Click to enlarge
Latest Colorado IR Satellite Image
Click Image to Enlarge
Vis Satellite
Colorado Visible Satellite - Click to enlarge
Latest Colorado Visible Satellite Image
Click Image to Enlarge

 

WATCHES AND WARNINGS

TEXT OF ALL COLORADO WARNINGS

 

Latest Watches And Warnings

 

 

CENTER WEATHER ADVISORIES

 

AIRMETS/SIGMETS

 

 

 


 

FORECAST DISCUSSION: FA

 

 


 

OBSERVED UPPER AIR WINDS

(COURTESY RAP/NCAR)

 

 


 

FORECAST UPPER AIR WINDS

 

 


 

SURFACE OBSERVATIONS

(COURTESY RAP/NCAR)

 

 

 :

 

NOTAMS:

https://www.notams.jcs.mil/geo/radiusForm.html

 

 

 

 

 

 

 

 

 

 

 

 

 

 

 

 


 

 

Constant Pressure Plots From the Storm Prediction Center

Link to the Sky Spotter Program Homepage

 

Other Aviation Links

NWS Aviation Weather Center

ADDS - Aviation Page
FAA Homepage

 


 

 

 

 

 

 

 

 

 

 

 

 

 

 

 

 

 

 

 

 

 

 

 

 

 

 

 

 

 

 

 

 

 

Plots of AIRMETS / SIGMETS

Text AIRMETS / SIGMETS by Center 

Interactive AIRMET/SIGMET Java Tool

 

 



USA.gov is the U.S. government's official web portal to all federal, state and local government web resources and services.